MIDORI II (ADEOS-II)

Last updated on Wed Nov 05 2025 00:02:15 GMT+0000 (Coordinated Universal Time)

1 27597U 02056A 25308.63018325 .00000332 00000+0 14872-3 0 9991 2 27597 98.7572 261.3993 0001679 45.7039 314.4280 14.29164653192436
UTC large
Height (km)
Speed (km/s)
/
Latitude / Longitude
Inclination (degrees)
Orbital Period (minutes)
Azimuth
Elevation
Range (km)
Doppler Factor

Next 0 passes for location: London (51.5072 / 0.1276)

Sorry there are no passes over London.